Torna al catalogo

STARLINK-11730

AttivoComunicazioniVLEO
NORAD 64074·PAYLOAD·🇺🇸 United States

Lanciato May 21, 2025 da Cape Canaveral Space Force Station

Loading…

Prossimi Passaggi (prossime 24 ore)

TLE

AggiornatoSource: CelesTrak SupGP

Epoca: Sep 14, 2026, 20:57 UTC

1 64074C 25107L   26257.87340278  .00115510  00000+0  89697-3 0  2578
2 64074  43.0009  38.2057 0001689 277.4677 249.2948 15.70785272    11

Traccia STARLINK-11730 in tempo reale con AllMySat

Download on the App Store